Temp_Advection
nan nan nan nan nan nan nan nan nan nan nan nan nan nan nan nan nan nan nan nan nan nan nan nan nan nan nan nan nan nan nan nan nan nan nan nan nan nan nan nan nan nan nan nan nan nan nan nan nan
nan -0 -0 -1 -1 -1 -0 -0 0 -1 -0 -0 -0 -0 -0 -0 -1 -0 -1 -0 0 0 0 1 0 0 0 0 0 0 0 0 0 0 0 0 0 0 0 0 0 0 0 0 0 0 0 0 nan
nan -0 -2 -1 -0 -0 -0 -0 -1 -0 0 -0 -0 0 -0 -0 -0 -1 -1 -0 -0 0 0 0 0 0 0 0 0 0 0 0 0 0 0 0 0 0 0 0 0 0 0 0 0 0 -0 0 nan
nan -1 -1 -1 -1 -0 -0 -0 -0 0 -0 -0 -0 -0 0 -0 -0 -0 -0 -0 -0 0 0 0 0 0 0 0 0 0 0 0 0 0 0 0 0 0 0 0 0 0 0 0 -0 0 0 0 nan
nan -1 -1 -1 -1 0 -0 -0 -0 -0 -0 0 -0 -0 0 -0 -0 -0 0 -0 -0 0 0 0 -0 0 0 0 0 0 0 0 0 0 0 0 0 0 0 0 0 0 0 -0 -0 0 0 0 nan
nan -0 -1 -1 -0 -0 0 -0 -0 -0 -0 0 -0 -0 0 0 -0 -0 0 0 -0 0 0 -0 -0 0 0 0 0 0 0 0 0 0 0 0 0 0 0 0 0 0 0 0 0 0 0 0 nan
nan -0 -0 -1 -0 0 -0 -0 -0 -0 -0 -0 -0 -0 0 -0 -0 -0 0 1 0 0 0 -0 -0 0 0 0 -0 0 0 0 0 0 0 0 0 0 0 0 0 0 0 0 0 0 0 0 nan
nan -0 -0 -0 0 0 -1 0 -0 -0 -0 -0 -0 -0 -0 -0 -0 -0 -0 0 1 0 0 0 -0 0 1 -0 -0 0 0 0 0 0 0 0 0 0 0 0 0 0 0 0 0 0 0 0 nan
nan -1 -1 -0 0 0 -0 -0 0 0 -0 -0 0 0 -0 -0 -0 -0 -0 0 0 1 0 0 0 1 0 -1 -0 -0 0 0 0 0 0 0 0 0 0 0 0 0 0 0 0 0 0 0 nan
nan -1 0 -1 -1 -0 -0 -0 -0 -0 -0 0 0 0 -0 -0 -0 -0 -0 -0 0 0 1 0 0 0 -0 -0 -0 0 1 1 1 1 1 1 0 0 0 0 -0 0 0 0 0 0 0 0 nan
nan 0 -1 -0 -0 -0 -0 -0 -0 -0 -0 -0 -0 -0 -0 -0 -0 -0 -1 -0 -0 -0 0 0 0 0 0 -0 -1 1 2 0 1 0 0 0 -0 -0 0 -0 0 0 0 0 0 0 0 0 nan
nan 0 -0 -0 0 -0 -0 -0 -0 -0 -0 0 0 0 -0 -0 -0 -0 -0 -1 -0 -0 -0 0 0 0 0 0 0 1 0 -0 -0 -0 0 -0 -0 -0 -0 -0 0 -0 -0 -0 0 0 0 0 nan
nan 0 0 0 0 -0 -0 -0 -0 -0 -0 0 0 -0 -0 -0 -0 0 -0 -0 -0 -0 -0 -0 0 0 1 -0 -0 0 -0 -0 0 -0 -0 -0 -0 -0 -0 -0 -0 -0 -0 -0 -0 -0 -0 -0 nan
nan -0 -0 0 0 0 -0 -0 -0 0 0 -0 0 -0 -0 -0 -0 -0 0 -0 -0 -0 -0 -0 -0 0 0 0 0 0 0 -0 -1 -0 0 -1 -0 -0 0 0 0 -0 -0 0 0 0 0 0 nan
nan -1 -0 0 0 0 -0 -1 -0 0 0 0 0 0 -0 -0 -0 -0 -0 -0 -0 -0 -0 -0 -0 -1 -0 0 0 -0 -0 -0 -1 -0 0 -0 -0 0 0 0 0 -0 0 1 0 0 0 -0 nan
nan -0 -0 -0 -0 -0 -0 -1 -0 0 0 0 0 0 -0 -0 -0 -0 -0 -0 -0 -0 -0 -1 -1 -0 -1 -0 0 0 0 0 0 -0 -1 1 0 1 0 0 -0 0 0 0 0 0 0 0 nan
nan -0 -0 0 -0 0 -0 -1 -0 1 0 0 0 0 -0 -0 -0 -0 -0 -1 -1 -1 -0 -1 -1 -1 -1 -1 -0 0 0 0 -0 -0 -1 -1 1 -0 -0 0 -0 0 0 0 1 0 0 0 nan
nan 0 0 -0 0 -0 -0 -1 -0 0 0 0 -0 -0 -0 -0 -1 -1 -2 -2 -1 -1 -1 -1 -2 -2 -1 -1 -1 -0 -0 0 -0 -0 -0 -1 -1 0 -0 -0 0 0 0 0 0 0 0 -0 nan
nan -0 -0 -0 -0 -0 -0 -0 -0 0 0 -0 -0 -1 -1 -1 -1 -1 -2 -2 -3 -2 -2 -2 -2 -3 -3 -1 -1 -1 -0 -0 -0 -0 0 -1 -1 1 -0 -0 0 -0 -0 0 0 0 -0 -0 nan
nan -0 -0 -0 0 0 -0 -1 -0 -0 0 -0 -1 -1 -1 -1 -1 -1 -1 -1 -2 -2 -2 -4 -4 -4 -5 -3 -1 -1 -1 -0 -0 0 0 -0 -0 1 2 0 0 -0 -0 0 -0 -0 -1 -0 nan
nan 0 -0 -0 -1 -0 -0 -0 -0 -0 -0 -0 -1 -1 -1 -3 -2 -1 -1 -1 -1 -2 -2 -2 -3 -4 -5 -5 -3 -1 -1 -1 0 1 1 0 1 2 2 1 0 -1 -1 -0 -1 -1 -0 0 nan
nan -0 -0 -0 -1 -1 0 -0 -0 -0 -0 -1 -1 -2 -3 -1 -2 -1 -1 -0 -0 -1 -1 -2 -2 -3 -7 -5 -3 -3 -1 -0 1 0 0 1 1 1 -0 2 0 -1 -0 -1 -1 -0 0 0 nan
nan 0 -0 -0 -0 -1 -0 -0 0 0 -1 -1 -2 -2 -1 -0 -1 -1 -1 0 0 -1 -1 -1 -2 -2 -4 -5 -4 -3 -1 -1 -0 1 1 1 0 0 1 1 1 -1 -1 -1 -0 1 0 -0 nan
nan -0 -1 0 0 -0 -0 0 -0 -0 -1 -1 -1 -0 0 -0 -0 -0 -0 -0 -0 -0 -2 -1 -2 -1 -2 -4 -5 -2 -1 -1 0 1 1 -0 0 1 -0 0 1 -1 -1 -0 1 1 0 0 nan
nan -0 -0 0 -0 -0 -0 -0 -0 -0 -0 -1 -0 0 -1 -0 0 -0 -0 -1 -1 -1 -1 -1 -2 -2 -2 -3 -3 -1 -1 -1 0 1 1 0 0 -0 0 1 -0 -1 -1 1 2 1 0 1 nan
nan -0 0 -0 -1 -1 0 0 0 -0 -0 -1 -0 -0 -0 -0 -0 0 -0 0 -0 -1 -1 -1 -2 -3 -3 -3 -2 -0 -0 -1 -0 1 1 -0 -1 0 1 0 -0 -0 0 1 2 0 0 1 nan
nan -0 -0 0 0 -0 -0 -0 0 -1 -1 -1 -0 0 -0 -0 -0 0 0 -0 -0 -1 -0 -1 -1 -2 -2 -3 -3 -1 -1 -2 -1 1 -1 -1 -1 1 0 -0 0 0 0 1 1 -0 1 1 nan
nan -0 0 -0 -0 -1 -0 -0 0 -1 -1 -1 -1 -1 -0 -0 0 0 1 0 -0 0 0 0 -0 -1 -1 1 -1 -1 -1 -1 -0 -0 -0 1 -0 0 1 2 0 -0 0 1 0 0 0 1 nan
nan 0 -0 -0 -0 -0 -0 0 -0 -0 -0 -1 -1 -0 0 0 0 0 0 0 -0 1 1 0 0 0 0 1 1 1 0 -0 -1 0 2 1 -0 1 1 -0 -0 0 0 -0 -0 1 0 0 nan
nan nan nan nan nan nan nan nan nan nan nan nan nan nan nan nan nan nan nan nan nan nan nan nan nan nan nan nan nan nan nan nan nan nan nan nan nan nan nan nan nan nan nan nan nan nan nan nan nan
Wind_Speed
3 4 5 7 7 8 14 6 5 5 3 8 7 6 7 7 11 6 17 16 19 5 14 17 15 15 14 13 13 12 10 10 10 12 13 14 14 11 9 8 8 8 8 9 10 10 10 10 8
1 4 5 10 7 12 3 12 5 9 5 7 3 6 3 10 10 8 17 24 15 4 10 16 16 15 15 15 13 12 10 10 10 11 13 15 15 12 10 8 8 8 8 9 10 10 9 10 9
1 5 12 6 12 13 7 8 11 5 1 7 6 2 5 6 11 15 20 19 8 6 9 13 16 16 15 14 13 11 11 10 10 10 13 16 16 13 11 9 9 9 9 10 8 9 9 9 11
4 6 10 9 15 6 5 8 4 2 7 6 6 5 5 2 12 17 20 15 5 5 7 16 15 16 15 15 13 11 10 10 10 10 14 16 14 13 13 11 10 9 9 10 10 10 8 9 10
5 10 10 13 16 2 5 4 3 4 2 6 7 7 8 3 12 18 20 15 4 4 9 17 16 17 16 15 13 11 11 10 11 12 14 15 15 15 14 12 11 10 10 10 10 10 9 10 10
11 7 11 12 14 5 4 3 6 3 5 6 7 10 6 1 14 20 19 16 7 4 9 13 15 18 17 15 14 12 12 11 12 14 14 15 15 15 14 12 12 11 11 11 11 10 10 10 11
13 9 13 16 10 8 6 4 6 7 9 6 9 9 9 9 18 19 16 15 9 4 8 9 12 18 17 16 15 14 14 13 13 14 15 16 16 16 15 13 13 12 12 12 11 11 11 11 12
11 7 16 12 10 4 8 5 5 7 10 7 3 6 9 16 17 16 14 11 11 5 7 9 11 18 18 17 18 17 16 16 15 16 16 16 16 17 16 15 14 14 14 13 12 11 12 13 13
9 10 12 12 3 2 4 6 8 9 13 8 6 4 10 14 15 14 12 9 11 10 7 9 11 13 15 18 19 20 19 18 17 18 18 17 17 17 17 16 15 15 15 14 12 12 13 13 13
10 10 12 11 9 8 11 11 12 10 11 12 3 6 10 14 15 15 14 13 12 11 9 10 11 12 13 18 22 22 20 19 19 20 17 19 14 13 13 13 17 16 16 15 14 13 13 14 16
7 11 9 3 6 8 12 13 11 12 12 10 9 11 12 15 18 17 16 15 14 13 10 10 13 14 15 13 19 22 20 17 17 19 18 17 17 17 15 15 19 18 17 16 15 15 16 18 15
9 6 6 5 5 9 10 13 12 13 12 11 9 11 13 18 19 18 19 18 17 15 14 11 13 16 17 16 17 17 21 25 18 20 21 19 20 19 15 14 14 14 15 12 12 14 16 19 17
10 6 4 5 6 7 10 13 10 19 15 8 9 12 21 20 17 16 16 18 18 17 16 14 14 15 19 20 19 19 22 28 30 26 25 25 20 18 17 17 15 15 14 15 15 16 18 20 21
3 7 10 9 7 7 8 13 13 17 5 9 12 20 19 17 14 15 15 17 19 19 19 18 17 17 19 24 24 23 24 24 30 31 30 27 21 21 18 19 18 17 16 16 17 18 20 18 18
8 11 12 13 6 7 5 18 16 4 6 17 18 17 16 14 15 16 16 18 20 21 22 22 22 22 23 24 28 28 27 27 29 34 34 33 28 24 21 20 19 18 18 18 18 21 17 18 16
9 10 13 11 7 4 3 10 7 4 13 19 16 15 15 16 17 18 21 23 23 24 24 26 26 28 29 26 30 33 32 32 30 31 36 36 35 28 26 22 21 19 19 18 21 22 22 20 17
12 12 7 2 7 2 6 12 9 15 18 15 13 14 16 17 18 21 26 28 30 30 31 34 34 35 34 34 31 37 38 38 37 34 36 39 39 35 29 26 24 24 20 19 24 24 22 18 19
10 6 3 8 4 8 14 15 10 17 12 9 9 11 15 16 21 26 29 29 29 37 43 41 36 35 39 37 39 34 42 43 41 39 38 40 41 43 37 29 27 28 24 23 27 27 22 19 17
6 8 12 11 8 9 10 16 15 11 3 5 8 16 18 21 25 27 31 34 37 37 37 42 41 36 37 40 39 44 40 45 44 43 43 42 44 45 44 37 34 34 30 27 27 27 24 22 20
6 10 13 8 2 12 12 19 12 5 0 4 14 18 23 24 27 30 33 37 36 39 37 38 42 39 36 40 43 40 45 44 47 46 46 46 50 46 49 45 39 39 33 30 30 27 25 24 25
10 7 7 10 14 18 10 10 13 11 6 9 16 23 25 28 32 35 37 38 39 41 38 40 41 40 40 35 41 41 42 43 47 48 47 47 50 46 48 49 43 44 38 37 37 32 28 31 27
11 5 6 11 10 9 8 6 8 8 4 12 19 24 26 30 32 35 37 41 41 43 40 41 40 40 41 40 36 45 41 45 46 46 48 46 49 46 47 47 48 49 42 41 39 35 32 29 34
3 3 9 12 13 13 16 7 8 10 6 12 22 25 24 27 31 36 38 39 38 38 42 41 39 39 38 39 39 46 43 43 44 47 49 46 45 47 44 46 47 50 47 45 43 38 36 37 30
3 10 14 10 8 9 13 3 5 5 9 13 19 23 25 28 32 34 35 37 40 40 41 43 34 35 35 34 38 41 45 42 42 43 44 45 41 47 42 46 45 48 49 46 46 42 41 40 34
9 10 6 9 7 7 8 5 9 8 10 13 16 23 27 29 32 37 40 41 45 49 50 45 34 34 27 26 34 42 41 53 39 45 46 47 40 35 39 44 48 48 51 48 45 45 43 42 36
5 7 5 5 8 9 8 6 4 9 9 16 19 22 26 31 34 37 40 41 45 49 50 43 36 32 23 21 31 37 41 45 40 38 43 50 48 20 36 43 48 50 52 50 47 45 43 42 40
8 6 5 2 10 5 7 7 7 8 12 20 25 26 30 32 33 36 40 41 45 50 49 42 41 32 28 21 18 33 36 40 38 42 43 46 53 55 48 47 49 49 47 46 46 47 46 45 41
6 7 3 5 4 6 6 7 0 11 14 19 22 27 29 32 33 36 38 43 45 49 48 42 42 37 30 21 5 16 32 34 40 40 45 39 48 55 53 48 50 49 46 42 42 43 42 42 42
6 8 6 4 4 4 5 1 5 7 11 15 20 23 26 31 32 35 37 45 44 49 49 45 44 40 33 26 16 6 17 29 37 34 33 49 48 46 39 38 41 42 41 43 42 43 40 38 37
13 10 10 4 7 6 7 10 7 9 11 17 20 23 26 29 31 32 35 43 46 49 50 48 46 43 37 31 22 15 7 12 23 27 25 12 30 27 26 26 29 29 32 40 44 43 39 38 37
Wind_Direction
285 323 299 279 246 230 269 125 61 117 180 23 341 333 340 9 26 358 333 350 330 240 241 204 201 207 207 206 203 204 208 209 209 216 217 214 206 208 210 206 206 201 188 189 192 193 192 193 192
225 265 270 270 256 252 278 95 178 74 34 343 327 299 258 80 24 341 343 331 318 208 211 204 200 208 209 208 207 211 218 213 211 215 217 213 206 213 216 217 210 207 194 194 192 192 190 191 193
160 246 265 239 247 266 42 54 75 94 222 8 340 332 8 17 356 350 341 340 330 187 206 208 206 208 212 214 216 224 228 223 213 208 208 207 207 215 217 215 212 207 199 197 196 191 193 193 194
259 222 246 254 266 295 13 84 48 338 134 6 352 262 331 48 1 350 349 353 352 197 200 230 223 214 216 221 224 231 235 232 219 207 200 207 213 216 215 216 213 211 203 198 198 202 195 199 197
255 265 259 237 260 248 55 3 308 309 25 316 338 323 301 129 356 351 353 356 351 211 205 238 228 215 216 222 226 234 236 232 224 214 206 206 213 217 218 219 216 209 203 199 204 209 205 202 197
242 266 255 252 240 113 178 17 318 310 327 305 313 319 289 181 349 345 348 354 337 206 217 259 221 214 217 219 227 231 232 228 224 218 209 210 214 218 224 223 221 211 203 200 205 209 206 202 193
250 266 266 287 298 292 83 63 331 331 306 328 309 303 295 346 338 335 341 340 343 257 225 229 228 218 222 225 226 225 226 222 219 219 215 212 213 217 226 226 222 213 207 206 209 211 211 206 200
272 276 266 267 258 266 89 327 346 307 308 306 273 314 325 328 328 331 334 339 349 294 239 224 223 225 226 232 231 225 222 220 215 214 219 215 214 219 220 220 219 216 215 212 211 212 213 211 206
264 265 259 265 264 277 70 325 296 314 279 288 310 306 319 327 334 334 332 332 345 332 262 230 222 220 222 224 235 227 222 220 216 215 213 218 217 216 219 217 220 220 217 217 215 215 214 210 213
251 272 289 32 13 325 332 311 317 314 303 284 250 320 324 328 333 332 330 327 331 337 306 246 237 230 227 227 234 231 225 224 219 218 220 210 206 221 216 220 220 219 216 215 221 222 208 201 209
251 260 21 53 14 308 308 298 335 300 291 349 323 313 318 324 326 323 319 319 318 323 330 273 248 235 231 233 234 234 230 216 219 217 209 210 204 211 213 220 224 216 215 222 219 199 192 191 184
264 238 306 338 320 307 310 323 301 290 300 315 307 307 313 320 322 320 315 315 312 309 311 311 269 249 238 229 236 225 220 227 206 223 214 209 212 209 214 221 210 202 222 206 206 201 191 188 182
244 269 251 258 271 294 308 297 302 293 308 309 311 315 319 319 320 321 318 315 314 310 305 300 289 263 249 245 233 231 228 232 228 214 212 210 207 211 212 215 215 206 207 209 206 204 197 192 189
40 273 261 262 254 288 286 292 282 282 303 323 317 320 322 323 328 330 331 327 324 317 309 300 287 270 254 243 239 231 234 228 232 232 222 211 203 210 213 211 212 209 205 206 210 207 204 194 196
261 264 249 224 234 279 326 274 213 327 308 311 317 322 321 327 332 334 330 327 326 319 311 303 294 281 263 248 242 237 232 232 227 233 229 223 205 207 207 212 208 209 205 202 213 204 206 197 198
248 240 262 134 168 112 272 291 85 288 302 308 322 322 329 329 330 328 328 323 320 316 310 307 296 283 265 253 247 238 233 229 227 226 233 226 217 202 208 207 210 203 206 202 204 203 204 196 195
210 261 210 209 147 246 251 308 296 308 309 311 316 332 330 326 327 328 323 321 315 312 309 304 298 287 276 262 252 244 233 228 229 224 230 230 222 210 204 201 208 200 201 203 202 200 199 204 193
324 206 206 269 173 328 290 280 304 310 309 320 338 339 335 337 333 328 323 324 317 312 307 306 303 287 277 267 253 250 239 229 222 223 218 231 223 218 209 199 204 201 198 204 199 200 204 204 202
313 290 279 278 11 306 308 302 302 302 288 356 349 357 349 337 334 334 335 326 317 309 305 299 300 291 281 265 256 245 246 234 224 217 213 224 228 216 216 205 202 209 197 200 213 205 197 198 204
260 274 277 307 268 315 295 293 290 122 224 18 8 350 341 336 340 332 329 325 323 317 311 304 300 294 285 269 254 247 239 242 229 219 213 215 229 217 215 212 204 211 200 201 208 204 198 196 211
244 271 307 300 310 282 266 265 164 175 144 33 4 351 343 355 339 335 333 332 326 323 316 308 302 295 285 273 254 247 247 240 230 223 214 210 221 223 208 216 205 216 207 208 215 214 201 195 211
265 127 283 293 304 299 341 285 255 142 103 23 360 355 355 340 340 336 335 335 330 324 315 311 304 296 286 261 268 241 239 234 233 227 218 209 214 223 209 213 207 221 215 212 221 218 204 203 205
29 296 285 286 281 285 274 230 145 157 39 4 7 358 347 342 342 343 339 333 327 325 321 321 306 296 290 266 260 238 240 234 228 232 227 214 210 213 216 204 208 219 219 219 222 218 208 206 221
313 266 253 261 252 250 236 218 292 21 20 4 360 351 346 347 343 344 337 331 333 338 328 329 317 307 292 271 261 234 232 232 218 217 226 221 207 211 216 210 208 213 225 221 224 222 217 217 210
232 249 253 224 197 253 119 251 250 89 36 24 4 352 349 346 341 344 340 340 339 347 340 338 332 320 302 274 257 228 231 231 227 216 221 221 207 207 220 220 207 211 223 225 222 226 220 218 217
200 279 285 267 285 306 316 261 112 99 43 20 4 357 349 347 344 342 341 341 340 349 342 344 346 344 319 312 240 231 231 232 237 216 216 214 216 229 233 231 224 215 218 224 221 225 226 221 216
151 230 51 271 235 251 241 207 233 82 16 6 0 353 348 348 343 339 340 343 347 348 350 351 355 353 359 323 260 232 231 226 228 220 214 229 219 222 233 238 229 218 214 220 221 223 226 224 222
251 123 198 190 252 260 261 287 235 13 0 7 355 355 348 343 342 340 340 344 350 350 357 356 3 1 4 10 255 241 224 228 220 223 223 217 217 204 223 234 228 219 218 217 217 223 224 225 223
170 201 223 293 262 281 293 112 100 26 10 5 352 354 347 345 343 340 340 348 350 354 2 1 9 10 17 27 43 136 207 227 221 224 225 240 215 207 205 216 219 216 224 219 215 218 219 222 224
199 201 207 234 182 226 296 294 90 71 37 12 355 354 347 345 343 340 341 349 356 357 5 3 10 13 19 21 32 52 128 185 215 218 221 261 207 193 198 222 223 220 222 221 219 220 221 220 221
Height
1510 1510 1513 1512 1507 1486 1473 1465 1469 1480 1485 1493 1492 1491 1490 1487 1491 1495 1494 1491 1489 1490 1486 1487 1489 1492 1493 1495 1496 1499 1502 1504 1505 1506 1508 1509 1510 1511 1512 1513 1516 1516 1516 1517 1518 1519 1520 1522 1523
1512 1514 1513 1506 1498 1480 1466 1467 1477 1486 1495 1495 1492 1491 1487 1487 1495 1496 1494 1492 1489 1490 1489 1487 1489 1493 1494 1495 1497 1499 1502 1503 1504 1506 1507 1510 1511 1512 1513 1514 1515 1517 1517 1518 1519 1520 1522 1522 1523
1510 1514 1511 1492 1483 1478 1472 1473 1482 1490 1497 1496 1493 1494 1494 1493 1497 1498 1496 1491 1489 1491 1491 1489 1490 1493 1495 1497 1498 1500 1502 1503 1504 1506 1507 1509 1511 1513 1515 1514 1515 1517 1518 1519 1521 1521 1522 1523 1523
1515 1512 1508 1496 1482 1466 1473 1482 1489 1489 1493 1497 1496 1493 1497 1499 1500 1498 1496 1492 1490 1492 1493 1490 1492 1494 1496 1498 1499 1501 1502 1504 1505 1505 1507 1510 1511 1514 1514 1515 1515 1516 1518 1520 1521 1522 1522 1524 1524
1514 1507 1497 1488 1480 1469 1482 1489 1493 1491 1493 1497 1499 1494 1497 1498 1500 1499 1496 1492 1491 1494 1495 1491 1492 1493 1495 1497 1499 1500 1502 1504 1506 1506 1507 1509 1511 1514 1515 1516 1516 1517 1517 1519 1520 1521 1522 1524 1525
1510 1504 1495 1485 1470 1474 1486 1494 1495 1493 1494 1495 1499 1499 1495 1497 1498 1498 1496 1493 1491 1493 1495 1492 1491 1493 1495 1496 1498 1500 1502 1504 1505 1506 1507 1509 1510 1513 1515 1515 1517 1517 1517 1518 1520 1521 1522 1524 1526
1507 1495 1492 1481 1478 1478 1483 1497 1496 1498 1496 1495 1501 1497 1495 1496 1500 1498 1497 1494 1491 1491 1492 1493 1491 1493 1495 1496 1498 1499 1501 1503 1504 1506 1507 1509 1510 1512 1514 1515 1518 1518 1517 1518 1519 1521 1522 1524 1527
1506 1498 1492 1481 1482 1481 1492 1498 1498 1501 1498 1499 1499 1494 1497 1500 1500 1498 1497 1495 1493 1492 1492 1492 1492 1492 1494 1496 1497 1498 1500 1502 1503 1505 1507 1508 1509 1511 1512 1514 1516 1517 1518 1518 1519 1520 1522 1525 1527
1508 1499 1487 1477 1480 1484 1492 1498 1498 1501 1499 1496 1497 1500 1501 1501 1499 1498 1497 1495 1495 1493 1492 1493 1493 1493 1493 1493 1496 1498 1499 1501 1502 1504 1505 1508 1509 1510 1511 1513 1514 1516 1517 1518 1518 1519 1521 1524 1527
1504 1492 1482 1489 1492 1496 1499 1500 1499 1499 1495 1493 1494 1499 1501 1500 1499 1498 1496 1496 1496 1494 1493 1493 1493 1494 1494 1493 1493 1497 1498 1500 1501 1502 1504 1505 1510 1511 1513 1512 1512 1514 1515 1517 1518 1519 1520 1523 1526
1496 1494 1492 1495 1503 1504 1501 1499 1500 1498 1493 1491 1498 1501 1501 1500 1498 1497 1496 1495 1495 1494 1493 1493 1493 1493 1493 1494 1492 1494 1497 1499 1500 1501 1502 1505 1507 1510 1512 1511 1510 1512 1514 1515 1516 1517 1518 1522 1526
1502 1496 1501 1499 1506 1506 1502 1503 1500 1497 1494 1496 1499 1500 1499 1498 1497 1496 1495 1494 1493 1492 1492 1492 1492 1492 1491 1493 1492 1492 1493 1494 1499 1500 1500 1502 1505 1506 1510 1512 1510 1511 1513 1516 1516 1516 1518 1521 1525
1501 1497 1503 1504 1507 1506 1505 1501 1499 1495 1494 1495 1498 1498 1497 1495 1494 1494 1494 1492 1491 1490 1490 1490 1489 1490 1490 1489 1491 1490 1489 1488 1492 1494 1497 1499 1501 1505 1507 1509 1510 1510 1511 1514 1515 1516 1518 1519 1522
1501 1502 1501 1501 1502 1504 1505 1499 1497 1493 1495 1496 1496 1495 1495 1494 1493 1492 1492 1491 1490 1488 1487 1486 1486 1485 1486 1485 1484 1486 1485 1485 1485 1488 1490 1493 1498 1502 1504 1505 1508 1509 1509 1512 1512 1515 1515 1518 1521
1503 1502 1493 1495 1498 1503 1503 1490 1487 1489 1494 1495 1495 1494 1494 1492 1492 1491 1491 1490 1488 1486 1485 1484 1482 1481 1481 1480 1479 1479 1480 1479 1479 1481 1484 1487 1492 1496 1499 1502 1503 1506 1507 1508 1510 1513 1514 1517 1520
1500 1496 1490 1484 1497 1500 1503 1490 1486 1492 1494 1492 1492 1492 1491 1491 1490 1490 1490 1489 1487 1484 1482 1479 1478 1476 1473 1473 1474 1472 1473 1473 1473 1474 1475 1480 1485 1490 1492 1496 1498 1502 1504 1505 1506 1509 1512 1514 1519
1489 1487 1480 1483 1491 1498 1498 1491 1484 1487 1490 1490 1490 1490 1491 1491 1491 1490 1489 1486 1484 1482 1478 1474 1471 1468 1467 1465 1465 1465 1464 1464 1464 1468 1468 1470 1477 1482 1485 1488 1493 1496 1500 1502 1502 1504 1507 1512 1515
1484 1483 1483 1491 1487 1493 1491 1486 1482 1485 1486 1488 1489 1490 1491 1491 1491 1491 1489 1485 1481 1476 1469 1466 1463 1460 1458 1457 1456 1454 1454 1454 1456 1456 1461 1461 1466 1472 1477 1480 1484 1489 1493 1497 1498 1499 1503 1507 1512
1494 1492 1490 1484 1486 1497 1487 1486 1480 1482 1485 1487 1488 1490 1492 1493 1493 1491 1488 1484 1479 1473 1467 1457 1452 1447 1450 1447 1445 1445 1443 1444 1445 1448 1450 1453 1455 1463 1468 1472 1476 1480 1485 1491 1493 1494 1498 1503 1508
1495 1494 1488 1487 1490 1494 1486 1480 1473 1480 1484 1486 1490 1493 1493 1492 1492 1492 1488 1481 1473 1463 1456 1449 1442 1437 1434 1437 1434 1435 1434 1434 1435 1438 1439 1443 1445 1451 1456 1463 1467 1471 1478 1484 1488 1490 1492 1498 1501
1490 1494 1492 1498 1492 1484 1481 1466 1471 1476 1479 1485 1491 1495 1494 1493 1493 1489 1483 1475 1465 1457 1449 1441 1432 1424 1422 1419 1423 1424 1424 1425 1423 1427 1431 1433 1437 1442 1449 1455 1461 1462 1470 1475 1478 1483 1487 1491 1494
1490 1496 1501 1496 1491 1481 1477 1480 1459 1463 1473 1483 1491 1495 1496 1497 1492 1486 1478 1468 1459 1449 1442 1432 1421 1413 1408 1408 1409 1410 1410 1412 1414 1418 1422 1423 1427 1431 1441 1447 1453 1454 1462 1467 1471 1477 1483 1487 1488
1491 1501 1499 1496 1491 1484 1470 1480 1452 1457 1474 1487 1494 1499 1500 1494 1490 1479 1472 1466 1459 1446 1436 1422 1412 1403 1396 1394 1394 1398 1398 1401 1403 1409 1413 1414 1416 1423 1428 1438 1446 1446 1453 1460 1464 1470 1475 1480 1482
1500 1497 1489 1486 1486 1482 1459 1475 1459 1465 1483 1489 1497 1500 1495 1491 1486 1479 1473 1464 1454 1440 1429 1416 1402 1390 1382 1380 1381 1384 1388 1390 1391 1396 1402 1402 1405 1414 1418 1428 1438 1441 1445 1451 1456 1464 1468 1472 1478
1498 1490 1479 1480 1477 1468 1467 1476 1465 1468 1481 1489 1495 1495 1492 1489 1483 1474 1467 1456 1444 1430 1419 1405 1390 1377 1371 1367 1369 1373 1378 1379 1381 1384 1393 1398 1396 1408 1409 1416 1429 1434 1437 1443 1449 1454 1462 1466 1470
1490 1489 1480 1486 1468 1460 1458 1469 1459 1470 1479 1485 1491 1493 1491 1484 1479 1472 1465 1455 1443 1427 1415 1400 1387 1373 1365 1360 1362 1367 1371 1373 1375 1377 1383 1393 1396 1391 1412 1412 1419 1427 1431 1435 1442 1446 1455 1460 1465
1491 1493 1489 1498 1481 1484 1458 1456 1454 1467 1476 1482 1486 1487 1487 1482 1478 1472 1463 1453 1439 1427 1413 1400 1385 1374 1365 1359 1357 1360 1364 1367 1370 1373 1377 1384 1388 1397 1408 1403 1412 1420 1423 1428 1433 1438 1444 1452 1458
1489 1489 1497 1492 1490 1473 1450 1451 1451 1470 1478 1482 1488 1488 1486 1482 1477 1469 1461 1449 1437 1427 1414 1400 1387 1377 1367 1358 1352 1353 1357 1362 1363 1365 1369 1374 1374 1375 1390 1399 1407 1413 1413 1420 1427 1431 1437 1444 1451
1494 1492 1493 1487 1479 1477 1468 1455 1469 1475 1482 1489 1493 1491 1488 1482 1475 1468 1460 1447 1437 1427 1413 1402 1387 1375 1365 1358 1354 1349 1350 1352 1355 1363 1365 1348 1378 1386 1382 1395 1401 1401 1406 1414 1419 1424 1431 1438 1444
1479 1485 1486 1488 1478 1480 1479 1472 1465 1474 1484 1490 1492 1489 1486 1482 1475 1468 1460 1447 1435 1424 1409 1400 1388 1377 1369 1362 1355 1350 1348 1347 1344 1351 1362 1336 1372 1375 1368 1384 1394 1392 1400 1405 1412 1418 1424 1429 1436